CZ-2F DEB (46393 NORAD) Tracking and Keplerian Element Data

This shows tracking and keplerian element data for the satellite.

Feedback or suggestion? Click here.




ElementValue
Catalog46393
NameCZ-2F DEB
Epoch Orbit438
Epoch Day277.40984108
Epoch Year2020
RAAN274.6804
Inclination50.4176
Eccentricity0.0083902
Argument of Perigee326.4041
Mean Anonmoly33.1759
Mean Motion15.71427513
Decay Rate0.00328169
L11 46393U 20063E 20277.40984108 .00328169 43050-4 20462-2 0 9999
L22 46393 50.4176 274.6804 0083902 326.4041 33.1759 15.71427513 4382



Live tracking and technical data element details for CZ-2F DEB (NORAD 46393). CZ-2F DEB can be tracked NOW for your location showing map with azimuth and elevation plus other details from your city location.







IsCatalogInMostPopularTable: catalog: 46393, numindb: 143
Update: records affected: 1



GetName: 46393 CZ-2F DEB

Hit Count: updated at: Sun, 28 May 2023 06:38:56 GMT